LRCV Weather Reports


time (UTC)temp
F
wind
direction
speed
knots
gust
knots
rain 1hr
in
rain 24hr
in
rain mn
in
humidity
%
barometer
mb
20260507134842 70 360 2.6 0.0 0.00 0.00 0.00 57 1015.0
20260507133341 70 360 2.6 0.0 0.00 0.00 0.00 57 1015.0
20260507131838 70 340 4.3 0.0 0.00 0.00 0.00 57 1016.0
20260507130341 70 340 4.3 0.0 0.00 0.00 0.00 57 1016.0
20260507124838 68 330 5.2 0.0 0.00 0.00 0.00 60 1016.0
20260507123419 68 330 5.2 0.0 0.00 0.00 0.00 60 1016.0
20260507121841 70 320 6.1 0.0 0.00 0.00 0.00 57 1016.0
20260507120341 70 320 6.1 0.0 0.00 0.00 0.00 57 1016.0
20260507114841 70 330 6.1 0.0 0.00 0.00 0.00 57 1016.0
20260507113401 70 330 5.2 0.0 0.00 0.00 0.00 53 1016.0
20260507111841 70 330 5.2 0.0 0.00 0.00 0.00 53 1016.0
20260507110341 70 330 5.2 0.0 0.00 0.00 0.00 53 1016.0
20260507104841 70 280 6.1 0.0 0.00 0.00 0.00 53 1016.0
20260507103341 70 280 6.1 0.0 0.00 0.00 0.00 53 1016.0
20260507101841 70 260 1.7 0.0 0.00 0.00 0.00 60 1016.0
20260507100342 70 260 1.7 0.0 0.00 0.00 0.00 60 1016.0
20260507094842 68 1.7 0.0 0.00 0.00 0.00 60 1016.0
20260507093342 68 1.7 0.0 0.00 0.00 0.00 60 1016.0
20260507091843 68 1.7 0.0 0.00 0.00 0.00 56 1016.0
20260507090341 68 1.7 0.0 0.00 0.00 0.00 56 1016.0
20260507084841 66 150 4.3 0.0 0.00 0.00 0.00 60 1016.0
20260507083342 66 150 4.3 0.0 0.00 0.00 0.00 60 1016.0
20260507081841 64 120 5.2 0.0 0.00 0.00 0.00 64 1016.0
20260507080342 64 120 5.2 0.0 0.00 0.00 0.00 64 1016.0
20260507074842 64 130 5.2 0.0 0.00 0.00 0.00 64 1016.0
20260507073341 64 130 5.2 0.0 0.00 0.00 0.00 64 1016.0
20260507071842 63 100 7.0 0.0 0.00 0.00 0.00 64 1016.0
20260507070341 63 100 7.0 0.0 0.00 0.00 0.00 64 1016.0
20260507064841 61 110 8.7 0.0 0.00 0.00 0.00 59 1016.0
20260507063341 61 110 8.7 0.0 0.00 0.00 0.00 59 1016.0
20260507061851 61 100 9.6 0.0 0.00 0.00 0.00 63 1016.0
20260507060341 61 100 9.6 0.0 0.00 0.00 0.00 63 1016.0
20260507054841 57 110 7.8 0.0 0.00 0.00 0.00 67 1015.0
20260507053349 57 110 7.8 0.0 0.00 0.00 0.00 67 1015.0
20260507051842 57 90 6.1 0.0 0.00 0.00 0.00 67 1016.0
20260507050341 57 90 6.1 0.0 0.00 0.00 0.00 67 1016.0
20260507044838 55 90 8.7 0.0 0.00 0.00 0.00 72 1015.0
20260507043341 55 90 8.7 0.0 0.00 0.00 0.00 72 1015.0
20260507041841 50 80 4.3 0.0 0.00 0.00 0.00 94 1015.0
20260507040341 50 80 4.3 0.0 0.00 0.00 0.00 94 1015.0
20260507034838 52 90 7.0 0.0 0.00 0.00 0.00 82 1014.0
20260507033341 52 90 7.0 0.0 0.00 0.00 0.00 82 1014.0
20260507031841 52 90 7.8 0.0 0.00 0.00 0.00 88 1014.0
20260507030342 52 90 7.8 0.0 0.00 0.00 0.00 88 1014.0
20260507024838 54 90 7.8 0.0 0.00 0.00 0.00 82 1015.0
20260507023341 54 90 7.8 0.0 0.00 0.00 0.00 82 1015.0
20260507021841 54 90 8.7 0.0 0.00 0.00 0.00 82 1014.0
20260507020341 54 90 8.7 0.0 0.00 0.00 0.00 82 1014.0
20260507014841 54 80 7.0 0.0 0.00 0.00 0.00 88 1014.0
20260507013341 54 80 7.0 0.0 0.00 0.00 0.00 88 1014.0
20260507011841 55 70 8.7 0.0 0.00 0.00 0.00 82 1014.0
20260507010341 55 70 8.7 0.0 0.00 0.00 0.00 82 1014.0
20260507004841 55 70 8.7 0.0 0.00 0.00 0.00 82 1014.0
20260507003342 55 70 8.7 0.0 0.00 0.00 0.00 82 1014.0
20260507001841 55 70 11.3 0.0 0.00 0.00 0.00 82 1014.0
20260507000343 55 70 11.3 0.0 0.00 0.00 0.00 82 1014.0
20260506234841 55 70 8.7 0.0 0.00 0.00 0.00 88 1014.0
20260506233341 55 70 8.7 0.0 0.00 0.00 0.00 88 1014.0
20260506231842 55 70 8.7 0.0 0.00 0.00 0.00 88 1014.0
20260506230341 55 70 8.7 0.0 0.00 0.00 0.00 88 1014.0
20260506224838 55 90 8.7 0.0 0.00 0.00 0.00 88 1014.0
20260506223341 55 90 8.7 0.0 0.00 0.00 0.00 88 1014.0
20260506221841 55 100 7.0 0.0 0.00 0.00 0.00 88 1014.0
20260506220340 55 100 7.0 0.0 0.00 0.00 0.00 88 1014.0
20260506214857 57 100 6.1 0.0 0.00 0.00 0.00 77 1014.0
20260506213341 57 100 6.1 0.0 0.00 0.00 0.00 77 1014.0
20260506211838 61 120 6.1 0.0 0.00 0.00 0.00 72 1014.0
20260506210341 61 120 6.1 0.0 0.00 0.00 0.00 72 1014.0
20260506204842 61 120 7.8 0.0 0.00 0.00 0.00 72 1014.0
20260506203341 61 120 7.8 0.0 0.00 0.00 0.00 72 1014.0
20260506201838 63 120 8.7 0.0 0.00 0.00 0.00 68 1014.0
20260506200341 63 120 8.7 0.0 0.00 0.00 0.00 68 1014.0
20260506194900 61 110 6.1 0.0 0.00 0.00 0.00 77 1013.0
20260506193405 61 110 6.1 0.0 0.00 0.00 0.00 77 1013.0
20260506191842 61 120 7.0 0.0 0.00 0.00 0.00 72 1013.0
20260506190341 61 120 7.0 0.0 0.00 0.00 0.00 72 1013.0
20260506184847 63 120 6.1 0.0 0.00 0.00 0.00 73 1013.0
20260506183341 63 120 6.1 0.0 0.00 0.00 0.00 73 1013.0
20260506181841 64 110 5.2 0.0 0.00 0.00 0.00 68 1013.0
20260506180342 64 110 5.2 0.0 0.00 0.00 0.00 68 1013.0
20260506174842 68 120 4.3 0.0 0.00 0.00 0.00 64 1012.0
20260506173341 68 120 4.3 0.0 0.00 0.00 0.00 64 1012.0
20260506171842 72 130 5.2 0.0 0.00 0.00 0.00 57 1012.0
20260506170341 72 130 5.2 0.0 0.00 0.00 0.00 57 1012.0
20260506164841 75 130 5.2 0.0 0.00 0.00 0.00 50 1012.0
20260506163341 75 130 5.2 0.0 0.00 0.00 0.00 50 1012.0
20260506161842 77 130 6.1 0.0 0.00 0.00 0.00 47 1012.0
20260506160341 77 130 6.1 0.0 0.00 0.00 0.00 47 1012.0
20260506154842 77 130 5.2 0.0 0.00 0.00 0.00 47 1012.0
20260506153341 77 130 5.2 0.0 0.00 0.00 0.00 47 1012.0
20260506151841 77 110 6.1 0.0 0.00 0.00 0.00 44 1012.0
20260506150347 77 110 6.1 0.0 0.00 0.00 0.00 44 1012.0
20260506144841 79 130 6.1 0.0 0.00 0.00 0.00 45 1012.0
20260506143353 79 130 6.1 0.0 0.00 0.00 0.00 45 1012.0
20260506141841 79 130 6.1 0.0 0.00 0.00 0.00 45 1013.0
20260506140501 79 130 6.1 0.0 0.00 0.00 0.00 45 1013.0